{"data":{"norad_id":47655,"epoch":"2026-09-19T11:52:00.324480Z","epoch_age_seconds":112577,"freshness":"FRESH","line1":"1 47655U 21012AM  26262.49444820  .00039925  00000+0  11371-2 0  9998","line2":"2 47655  53.1578 242.3167 0005796  56.1300 304.0254 15.35724781309794","mean_motion":15.35724781,"eccentricity":0.0005796,"inclination_deg":53.1578,"raan_deg":242.3167,"arg_perigee_deg":56.13,"mean_anomaly_deg":304.0254,"bstar":0.0011371,"rev_number":30979,"period_min":93.766801045063,"perigee_km":454.80587227406,"apogee_km":462.73121317919,"semimajor_km":6836.9055427266,"source":"CELESTRAK","updated_at":"2026-09-20T09:00:38.598806Z"}}